Wind_Speed
9 7 6 12 13 8 12 16 11 11 11 6 10 12 13 13 12 13 16 15 13 14 16 17 18 17 17 15 16 18 17 14 12 13 14 14 14 14 16 21 24 25 25 24 23 22 20 19 18 18 19 20 19 18 17 15 14 13 12 11 11 11 11
7 4 5 9 4 5 13 12 9 15 16 11 12 15 15 12 11 15 16 16 16 16 17 18 17 17 16 15 16 17 18 19 16 15 15 16 17 15 14 15 20 23 24 24 24 24 24 21 19 19 21 21 20 19 18 17 16 15 15 13 12 12 12
3 3 6 8 1 7 12 3 6 16 16 12 7 8 15 13 9 13 15 14 14 13 13 15 17 17 17 16 17 16 16 18 20 19 19 19 18 17 15 12 14 18 19 21 24 25 26 24 21 21 22 20 19 18 19 19 18 16 15 14 14 13 13
5 5 4 9 5 11 15 6 5 8 9 12 5 3 13 15 9 12 16 19 18 13 11 13 15 15 15 15 16 17 16 17 18 17 16 16 16 18 18 14 12 14 15 19 22 24 26 26 23 21 21 21 20 20 21 21 20 18 16 15 14 14 15
4 6 1 8 6 9 13 13 11 5 8 16 11 6 11 11 11 15 17 20 20 16 15 14 14 15 14 14 15 15 15 15 15 14 13 15 15 17 18 17 13 11 12 16 18 20 23 25 25 22 22 22 22 22 21 20 20 19 18 17 15 15 16
9 7 6 8 8 11 13 14 17 16 18 18 12 12 14 12 15 21 22 23 23 20 18 16 17 17 16 15 14 13 14 14 14 13 14 15 16 17 18 18 16 14 13 13 14 16 18 22 26 25 24 24 22 22 21 19 19 21 21 21 19 17 17
18 13 7 7 9 15 17 15 17 21 21 19 16 17 18 18 20 23 24 25 25 22 21 20 20 18 16 15 13 11 12 13 12 12 14 15 15 17 19 20 20 19 18 16 14 16 18 21 25 27 28 27 24 23 22 19 21 24 23 22 21 20 18
18 12 9 10 11 14 17 16 15 14 15 18 21 23 23 24 25 25 24 24 24 22 22 22 20 19 17 15 13 12 13 14 12 12 13 15 16 16 17 20 22 22 21 19 17 18 21 22 22 24 27 29 28 26 25 23 24 25 24 21 21 23 21
18 12 10 14 17 13 13 13 6 5 9 14 18 22 23 24 25 26 28 28 26 23 22 21 19 19 18 16 15 17 18 18 15 13 13 16 18 18 18 20 23 23 23 22 21 21 21 20 21 21 24 28 30 28 28 27 26 25 24 22 23 25 24
22 19 15 16 18 10 5 8 7 2 8 14 17 20 22 24 24 23 26 28 27 24 23 22 22 21 19 17 18 18 19 17 14 13 13 15 19 20 19 21 24 25 25 24 23 23 21 20 20 20 22 27 31 31 29 28 28 26 25 24 25 25 24
20 21 18 19 21 12 5 7 10 13 15 14 16 20 20 22 23 22 23 24 23 23 22 23 23 22 20 19 19 20 20 18 15 13 14 15 19 20 19 19 22 25 25 23 23 23 23 23 23 21 21 23 27 29 29 29 29 28 26 27 28 26 25
17 19 17 19 23 19 16 15 14 18 19 16 18 20 18 18 21 23 22 20 19 20 21 22 23 23 22 22 21 21 22 22 20 18 16 15 18 21 20 18 18 20 22 21 18 19 21 23 25 24 23 22 22 23 25 26 29 30 29 28 29 27 26
20 20 19 22 25 25 26 25 20 19 19 18 21 23 21 21 23 23 22 20 21 21 21 23 24 23 23 23 22 21 22 23 23 22 21 17 16 20 23 23 20 19 21 21 18 17 18 20 22 23 23 22 21 19 19 20 22 26 30 32 32 30 28
21 22 22 23 24 26 29 29 26 24 21 20 23 25 26 28 27 23 22 22 23 23 23 24 25 25 24 23 22 21 22 23 23 22 22 21 19 19 22 25 25 22 23 25 24 21 19 19 21 22 22 22 21 20 19 19 19 20 24 29 33 35 34
20 21 22 20 18 20 22 24 26 25 23 20 21 23 26 28 25 22 23 23 23 24 26 26 26 26 26 24 22 21 21 23 24 22 22 22 21 21 20 22 26 27 26 27 27 26 24 22 22 24 24 24 24 22 20 19 18 18 19 21 25 30 32
19 19 19 17 17 18 18 20 22 22 21 19 19 22 25 25 21 19 20 20 21 23 25 25 25 24 24 23 22 21 22 23 24 23 22 22 22 22 21 21 24 27 27 26 26 26 27 27 25 24 24 24 25 23 20 18 18 18 19 20 19 20 21
21 22 18 12 14 16 16 18 20 19 18 18 20 23 23 22 21 20 20 19 21 23 23 22 22 22 22 22 21 21 22 22 23 23 22 22 22 22 23 23 23 25 25 25 26 25 25 27 26 24 23 23 23 23 22 21 21 21 21 21 19 19 20
22 25 20 14 13 15 15 17 18 16 15 18 22 23 20 18 19 20 19 20 21 22 21 21 21 21 21 21 20 20 21 21 23 23 22 22 22 22 23 24 24 24 25 26 26 25 23 24 24 23 22 22 22 23 23 22 22 22 21 20 19 20 23
20 24 22 17 15 17 19 19 19 17 18 21 23 23 21 19 18 17 17 18 19 20 20 20 20 21 21 21 21 21 20 21 22 23 23 22 21 22 24 24 24 24 26 27 27 27 26 25 25 24 23 22 22 22 22 21 20 19 20 20 18 18 20
18 23 22 18 13 14 17 19 20 20 20 22 22 23 24 21 17 16 16 16 18 19 20 20 20 21 21 21 21 21 21 21 22 23 23 22 21 21 23 24 25 26 27 28 28 29 28 26 25 25 24 23 22 20 19 18 17 16 17 18 18 18 19
17 24 25 22 18 15 16 18 19 17 18 21 21 22 24 22 18 18 18 18 18 19 20 21 20 21 21 20 20 20 21 21 21 22 24 23 22 22 22 24 26 28 30 31 30 30 30 29 27 25 24 23 21 18 17 16 16 16 16 16 16 17 18
19 25 29 27 20 17 18 21 20 18 17 18 18 19 21 21 20 19 19 18 18 19 20 21 21 20 20 19 18 18 19 20 20 21 23 24 23 22 22 23 26 28 31 33 31 30 31 31 28 25 24 23 21 19 18 17 16 16 15 15 15 14 15
22 24 29 30 24 20 21 23 24 23 19 16 16 16 17 18 19 19 18 17 18 18 19 20 20 19 19 18 17 17 17 18 19 20 22 24 24 23 21 23 26 28 31 33 33 32 32 32 29 27 25 23 22 22 21 18 17 15 14 14 12 10 10
19 22 26 30 28 25 23 23 28 27 20 16 18 19 19 19 20 19 19 20 20 19 19 19 20 19 18 18 17 16 16 17 18 18 20 22 24 23 22 22 25 28 30 31 32 34 36 33 30 29 29 26 23 22 21 18 17 16 15 14 12 9 9
16 20 23 24 24 24 22 23 27 26 21 19 21 21 21 21 20 20 20 20 21 20 20 20 20 19 18 17 16 16 16 17 17 17 18 20 21 21 21 22 23 27 28 28 28 34 38 37 34 32 30 28 25 21 19 18 17 16 16 16 15 14 12
14 18 21 22 22 24 23 23 24 23 20 21 21 20 20 20 19 20 20 20 21 21 20 20 19 19 18 17 16 16 15 15 16 16 16 18 19 18 19 20 22 25 26 26 28 33 38 37 36 35 32 28 25 21 19 18 17 17 17 17 16 16 15
14 15 19 22 24 27 26 25 26 23 21 22 22 21 21 18 17 20 21 20 20 20 19 19 19 19 19 18 16 15 14 13 15 15 16 17 18 17 16 17 19 22 24 24 27 33 41 40 38 37 32 27 24 21 20 19 18 17 18 17 17 17 17
16 15 17 19 23 26 26 25 25 23 21 22 22 22 21 18 17 20 21 21 20 19 19 19 19 19 19 17 16 15 14 13 13 14 15 17 17 17 16 15 17 19 21 21 22 28 35 38 37 34 30 27 25 23 22 21 19 18 16 16 16 16 17
18 17 17 18 20 22 23 21 21 21 21 21 23 23 23 20 18 19 20 20 20 19 19 19 19 18 18 17 16 15 14 13 13 13 14 15 16 17 16 16 17 19 20 22 24 26 26 26 28 29 28 27 26 24 22 21 19 18 17 16 16 16 17
22 19 19 20 20 21 21 18 18 20 21 22 23 23 22 20 19 19 19 19 19 19 19 19 19 18 18 17 15 14 13 12 12 12 13 15 16 16 16 17 18 20 21 22 24 26 24 22 24 27 28 27 25 23 21 20 19 19 18 18 18 18 18
25 22 20 21 22 23 22 17 15 18 21 23 22 22 22 20 18 17 18 18 18 19 19 19 19 18 18 17 15 13 12 11 11 12 12 14 15 16 16 17 18 20 22 22 22 23 22 20 21 24 25 25 24 22 21 20 20 19 20 20 20 20 20
26 24 24 23 23 25 25 20 16 18 21 22 21 21 22 21 19 18 19 19 19 19 19 19 18 17 17 16 15 13 12 11 11 11 11 12 13 14 15 16 18 20 21 22 22 22 23 23 23 24 24 24 24 23 22 22 22 21 21 21 21 21 22
24 24 23 22 23 26 27 23 21 22 23 23 22 22 22 22 21 20 19 18 19 19 18 17 16 16 16 15 14 14 12 10 10 10 10 10 11 12 14 15 16 19 21 22 23 24 25 26 26 26 26 26 26 26 25 25 24 23 23 23 22 22 23
23 22 22 23 24 25 25 23 22 22 22 23 23 23 23 23 23 22 19 18 18 18 17 16 16 15 15 15 14 13 12 11 10 10 10 10 10 11 12 13 14 16 19 22 25 26 27 29 30 30 30 29 29 29 28 27 27 26 25 24 23 23 24
23 21 21 21 21 21 22 22 20 20 20 22 23 22 22 22 23 22 20 17 17 17 16 16 16 15 15 14 13 12 12 11 10 10 10 10 10 11 12 13 13 14 17 20 24 26 27 29 30 31 31 31 31 30 29 29 28 28 27 26 25 24 23
23 22 22 21 19 19 20 20 19 18 19 21 22 21 20 21 22 21 19 16 16 16 15 15 15 14 14 14 12 11 11 10 10 10 10 10 10 11 11 12 12 13 14 16 20 24 25 26 27 29 29 29 29 28 28 27 27 27 27 27 25 23 22
26 25 24 23 21 20 21 21 21 20 19 20 21 20 19 20 20 20 18 16 15 15 15 15 14 13 13 13 12 11 11 10 10 10 10 10 10 10 11 12 12 12 13 13 15 19 21 22 23 25 27 28 28 28 27 26 25 25 25 25 23 22 20
Wind_Direction
307 280 225 162 149 146 165 180 190 174 170 216 240 228 235 240 235 243 246 243 256 264 266 273 274 274 275 274 274 263 255 259 258 256 262 266 269 260 240 231 231 234 236 237 236 232 230 229 225 225 225 224 225 225 222 218 213 210 210 210 209 207 206
295 319 186 174 174 202 182 182 193 176 173 203 225 226 229 227 230 240 242 237 240 247 255 260 259 258 260 263 267 260 250 249 245 241 247 252 256 259 254 242 234 233 233 236 239 235 231 229 226 226 227 227 228 230 229 227 222 215 210 210 214 215 210
334 31 159 165 127 200 189 146 147 173 192 216 217 223 217 204 219 249 256 250 248 251 254 265 271 269 271 273 271 266 258 254 250 242 241 244 244 246 252 256 245 238 236 238 242 241 236 231 226 225 229 230 229 230 229 228 230 230 223 215 214 219 219
54 11 163 162 154 181 188 201 187 175 209 216 206 229 204 195 225 265 267 260 263 271 264 270 281 279 277 274 274 277 273 267 265 259 253 252 250 244 244 251 257 252 249 249 249 249 243 234 229 228 228 229 228 226 223 220 225 232 237 236 230 226 226
58 346 170 173 171 163 186 221 226 229 244 224 214 207 196 194 227 248 257 257 258 263 257 257 266 267 264 263 271 279 276 272 274 277 271 262 257 251 242 240 243 245 249 250 251 254 249 239 235 234 231 230 229 224 221 222 226 228 232 239 240 236 233
166 215 207 202 199 181 198 221 214 213 230 232 215 199 204 213 223 229 236 243 249 253 255 257 261 265 267 271 282 285 275 270 270 271 268 260 256 252 243 236 229 224 229 237 243 252 253 245 241 239 236 235 231 225 224 228 230 227 224 224 227 233 236
188 207 219 224 215 209 223 237 225 219 225 233 225 206 205 212 219 225 228 234 243 248 251 256 261 268 272 274 280 282 278 275 268 262 259 255 255 251 242 235 230 228 233 237 235 235 240 241 240 238 236 233 228 225 227 228 224 222 225 229 229 230 235
208 226 241 249 248 236 240 244 242 247 248 243 232 216 209 211 219 230 236 239 245 247 250 257 264 272 275 272 269 268 276 282 279 272 262 254 252 248 240 236 235 234 236 236 229 223 227 231 232 233 233 230 227 225 225 225 223 221 226 236 236 230 233
212 217 230 254 265 265 253 234 226 314 289 256 241 230 222 220 224 234 240 243 246 250 256 263 271 279 279 277 279 279 283 288 286 280 269 258 253 248 242 241 239 234 232 232 230 227 230 233 232 234 235 233 229 226 226 228 227 224 224 231 235 232 233
214 218 221 240 255 265 260 219 183 164 243 246 254 251 240 235 233 236 240 243 248 254 261 268 273 279 279 278 282 283 286 290 287 277 268 261 256 251 245 245 245 238 231 230 231 231 235 236 235 237 240 240 236 231 229 230 230 228 228 231 234 235 236
225 232 233 238 245 245 238 230 209 204 216 235 262 267 261 254 248 244 241 242 247 254 262 270 274 276 277 278 279 280 281 280 278 275 270 263 258 254 248 244 245 241 233 230 230 232 234 234 232 232 234 241 243 237 231 231 232 232 233 232 231 233 239
223 230 232 234 237 234 237 244 232 223 226 237 254 264 271 271 265 258 251 250 254 258 264 270 274 276 277 278 281 283 283 278 271 268 269 266 257 252 247 242 241 238 233 228 224 224 228 230 228 227 230 236 244 243 238 236 236 233 231 230 230 234 239
224 222 218 222 228 231 240 248 248 246 247 246 249 258 267 272 274 273 271 270 267 268 271 272 275 279 280 281 284 285 285 283 277 270 267 266 260 253 247 242 243 244 238 231 223 217 222 228 228 226 230 237 241 244 247 247 243 235 229 230 235 241 240
233 229 223 225 230 234 242 250 254 256 254 249 255 264 267 270 274 278 279 276 271 271 273 274 278 282 283 284 285 284 282 281 281 276 268 263 259 257 253 248 248 250 245 237 231 226 225 233 239 239 240 244 245 248 256 260 258 247 237 235 240 243 242
234 236 240 244 248 252 255 254 253 256 258 256 259 263 265 268 274 277 275 273 271 271 272 274 278 281 283 285 284 283 282 279 278 275 270 264 257 254 256 254 250 249 248 243 237 235 238 245 252 253 254 257 256 256 261 265 264 259 257 253 246 242 243
229 229 239 251 259 264 266 257 253 256 259 260 259 259 263 269 275 277 276 275 274 271 271 275 279 281 284 286 287 286 285 282 278 272 267 263 257 251 249 251 251 249 248 245 242 242 246 252 255 256 258 262 262 260 259 259 260 265 272 271 258 247 247
225 217 218 231 255 266 271 268 262 255 251 256 261 262 266 271 272 274 277 277 274 271 272 276 279 283 286 288 291 291 288 284 279 272 266 261 257 253 247 245 247 246 243 243 246 248 248 250 253 256 258 260 263 262 259 256 258 264 270 273 267 258 256
222 218 217 215 230 245 254 266 269 258 248 255 263 266 267 266 265 268 272 274 273 274 276 277 278 282 285 288 291 292 289 285 278 271 266 261 258 255 250 245 243 242 242 242 244 245 245 248 254 258 260 260 262 264 263 261 260 260 262 266 267 263 260
218 217 221 215 214 223 232 248 262 258 248 251 261 269 271 267 264 264 269 275 278 278 277 277 279 281 283 286 288 288 287 284 277 269 263 260 256 253 251 248 243 240 240 241 239 239 242 247 252 255 257 258 259 261 263 263 261 258 256 258 260 261 260
210 206 215 217 215 226 237 247 256 256 252 252 258 266 268 268 269 268 268 272 275 277 278 278 280 283 285 288 289 288 286 282 275 268 261 257 254 250 248 247 244 239 238 239 238 238 240 242 244 245 249 252 253 256 259 260 257 254 252 253 255 257 257
215 202 210 217 215 222 242 253 254 252 252 252 254 261 265 267 269 269 270 273 272 276 279 280 281 285 288 291 292 292 291 286 279 269 261 257 254 251 249 246 243 241 239 237 238 239 239 237 236 236 240 245 246 246 249 251 250 249 247 245 243 244 246
237 215 212 215 213 219 239 253 254 249 245 244 247 255 263 268 270 269 271 274 274 277 280 280 283 286 287 289 291 293 294 291 284 271 261 257 255 253 251 247 243 242 240 238 239 239 234 230 230 231 231 233 237 237 237 238 239 239 235 229 231 236 240
245 231 219 213 211 220 233 245 253 253 246 242 247 253 258 264 269 272 276 277 276 277 279 281 283 285 287 289 289 291 294 291 285 274 262 258 257 255 252 248 244 243 242 240 238 236 230 226 228 230 228 224 228 235 235 229 225 224 220 219 228 234 228
240 237 227 218 217 223 228 238 249 251 243 239 250 261 265 265 268 272 276 277 276 276 278 282 285 286 288 290 289 291 293 291 286 275 262 258 259 257 254 249 245 243 244 244 242 239 236 230 225 224 224 223 224 229 230 223 219 221 224 229 235 229 214
236 229 226 224 228 231 228 234 245 249 248 251 258 265 268 270 272 274 274 275 276 277 278 281 285 288 289 290 290 291 293 290 286 276 263 258 258 258 255 250 247 247 247 247 245 238 230 223 217 212 214 219 220 221 221 219 220 223 229 237 242 242 245
239 229 225 225 234 240 236 236 244 248 251 258 263 265 265 268 275 279 280 279 278 279 280 282 285 288 289 290 291 294 295 290 286 279 268 260 257 258 255 248 249 251 250 253 252 234 218 212 210 205 204 209 212 214 217 217 217 220 223 230 235 238 246
242 237 231 228 235 243 241 238 242 247 251 258 264 265 265 268 276 280 281 279 278 279 281 281 282 285 289 290 291 293 293 288 284 278 271 264 259 259 257 249 248 250 250 255 253 230 211 207 208 205 204 206 206 208 214 216 216 218 219 223 228 232 239
238 235 235 234 236 243 246 244 244 249 255 263 267 267 267 271 276 276 276 277 280 280 279 280 282 285 289 290 288 288 286 283 280 275 270 267 262 260 259 251 246 246 245 248 245 225 210 207 208 207 206 204 203 207 214 217 220 222 221 223 228 232 241
244 243 249 251 246 248 256 258 256 256 259 262 266 268 271 275 275 273 274 276 279 279 279 281 283 285 288 288 286 284 282 280 279 276 272 270 264 260 257 251 246 243 240 237 237 234 228 222 220 217 211 205 204 209 213 218 224 229 231 232 233 234 239
248 251 258 262 260 261 265 265 263 264 264 265 268 271 273 274 274 274 274 273 273 274 277 280 283 286 287 286 284 282 281 280 278 274 269 267 264 259 254 248 244 242 240 236 235 237 240 239 235 229 219 210 209 212 216 222 229 235 240 242 241 241 242
246 248 251 256 260 265 268 266 263 263 263 263 267 271 273 273 274 275 274 274 274 276 278 281 284 285 285 285 284 283 281 280 277 270 264 262 261 258 253 247 241 239 239 237 235 235 235 232 228 225 220 215 216 219 223 228 233 239 245 247 248 249 249
242 244 246 250 255 260 266 269 268 263 262 261 263 268 271 271 271 271 272 274 275 277 279 282 283 284 283 282 282 283 282 278 273 268 265 261 260 260 258 252 245 240 237 235 233 232 229 224 221 222 224 224 226 228 232 235 238 241 244 246 248 251 253
240 245 248 251 253 256 262 268 267 263 263 264 264 265 267 269 268 267 270 273 274 275 278 279 280 280 279 277 277 279 281 278 273 270 270 268 267 266 265 262 254 246 240 237 235 232 230 227 226 227 230 233 234 236 238 241 244 245 245 245 247 250 252
241 245 248 250 252 256 262 266 266 264 265 266 265 264 265 267 268 268 270 272 273 273 274 275 276 277 276 275 275 277 278 278 277 275 274 274 274 272 270 270 266 256 247 242 240 238 237 235 235 236 239 241 242 242 243 246 249 249 248 248 248 250 253
239 242 248 251 254 260 266 270 271 270 270 268 267 266 265 265 267 268 268 269 270 272 273 274 277 278 278 276 274 271 273 275 276 276 276 274 273 273 272 272 272 267 257 247 244 244 243 241 240 242 245 246 246 245 245 247 250 252 253 253 252 253 254
241 245 250 252 254 260 268 273 276 275 273 272 272 271 266 262 262 264 265 265 267 270 272 273 274 275 275 275 273 269 269 272 273 275 276 275 273 271 270 269 270 270 265 254 248 247 248 245 242 243 245 246 246 244 244 246 250 253 254 254 253 253 252
245 246 248 251 254 262 269 273 275 274 273 274 276 275 267 259 256 258 261 262 265 267 269 271 272 271 271 273 273 271 270 271 271 271 271 273 274 272 269 268 267 266 266 261 254 250 251 250 246 244 244 245 244 244 245 248 251 252 251 249 248 248 247
Height
5866 5865 5866 5868 5868 5868 5869 5871 5871 5873 5875 5875 5876 5876 5876 5876 5878 5877 5876 5878 5879 5879 5880 5880 5880 5879 5879 5880 5881 5882 5883 5884 5885 5885 5886 5887 5887 5888 5889 5890 5892 5893 5894 5895 5896 5898 5899 5901 5903 5904 5905 5906 5907 5907 5908 5909 5910 5912 5913 5914 5915 5916 5917
5865 5865 5866 5867 5868 5868 5869 5869 5869 5871 5873 5872 5872 5873 5873 5875 5876 5874 5873 5874 5875 5876 5876 5875 5875 5875 5876 5877 5878 5879 5879 5881 5881 5881 5882 5883 5884 5886 5887 5888 5889 5890 5891 5893 5894 5896 5897 5899 5901 5902 5903 5904 5906 5907 5909 5909 5910 5910 5911 5913 5914 5915 5916
5865 5865 5865 5867 5867 5868 5869 5869 5869 5871 5871 5871 5872 5872 5872 5874 5874 5872 5871 5871 5872 5873 5874 5873 5873 5875 5876 5877 5877 5877 5877 5878 5878 5879 5879 5880 5882 5884 5885 5887 5889 5889 5891 5892 5893 5893 5895 5897 5899 5900 5901 5902 5904 5906 5908 5910 5910 5911 5911 5911 5912 5913 5915
5865 5865 5865 5866 5865 5866 5868 5869 5869 5870 5870 5870 5870 5870 5871 5873 5872 5870 5869 5869 5870 5871 5872 5872 5872 5874 5875 5876 5876 5876 5877 5877 5877 5878 5879 5880 5881 5883 5884 5887 5888 5890 5891 5892 5892 5892 5893 5895 5897 5898 5900 5901 5902 5903 5905 5907 5908 5910 5912 5913 5912 5912 5913
5864 5865 5866 5865 5864 5865 5867 5868 5869 5869 5867 5866 5867 5869 5870 5870 5870 5868 5866 5865 5866 5867 5869 5870 5870 5870 5872 5873 5873 5874 5875 5877 5877 5879 5880 5880 5881 5882 5882 5883 5885 5888 5889 5889 5890 5891 5892 5894 5896 5897 5897 5898 5900 5901 5902 5904 5906 5908 5911 5912 5913 5913 5912
5861 5862 5863 5863 5863 5864 5864 5864 5865 5864 5863 5864 5866 5868 5868 5868 5866 5864 5863 5862 5863 5864 5866 5868 5868 5868 5870 5871 5871 5871 5873 5874 5876 5877 5878 5878 5879 5880 5880 5881 5882 5884 5885 5886 5887 5888 5889 5891 5893 5895 5895 5896 5898 5900 5902 5904 5906 5907 5906 5906 5909 5910 5911
5858 5859 5859 5860 5862 5862 5861 5862 5863 5862 5862 5863 5864 5864 5864 5865 5863 5862 5861 5860 5861 5862 5864 5865 5866 5867 5868 5869 5869 5870 5871 5873 5874 5875 5875 5876 5877 5878 5879 5880 5880 5881 5882 5883 5883 5885 5886 5887 5888 5891 5892 5893 5896 5898 5899 5901 5903 5903 5902 5903 5906 5907 5908
5856 5858 5858 5858 5859 5860 5860 5862 5862 5862 5862 5861 5861 5861 5861 5862 5862 5861 5860 5859 5859 5860 5861 5862 5863 5865 5866 5868 5868 5868 5869 5871 5873 5874 5874 5874 5875 5876 5878 5878 5878 5879 5879 5880 5881 5883 5884 5884 5883 5886 5888 5890 5892 5893 5895 5897 5898 5899 5900 5903 5905 5905 5906
5856 5857 5857 5856 5856 5857 5859 5860 5861 5862 5861 5860 5859 5859 5859 5860 5860 5859 5858 5857 5857 5858 5859 5860 5861 5862 5864 5865 5866 5866 5867 5868 5870 5873 5873 5872 5872 5874 5876 5876 5876 5875 5875 5876 5878 5880 5882 5883 5883 5884 5885 5886 5888 5890 5892 5893 5895 5897 5899 5900 5901 5902 5903
5853 5854 5855 5854 5853 5856 5857 5857 5859 5859 5859 5858 5857 5856 5855 5856 5857 5857 5856 5855 5856 5857 5858 5858 5859 5860 5861 5863 5864 5864 5864 5865 5867 5869 5871 5871 5870 5871 5872 5873 5874 5873 5871 5872 5875 5877 5880 5882 5883 5884 5884 5884 5884 5887 5889 5890 5892 5895 5897 5898 5898 5899 5901
5852 5852 5853 5853 5852 5854 5856 5856 5857 5856 5855 5855 5853 5852 5852 5853 5853 5854 5854 5854 5855 5857 5857 5856 5856 5857 5859 5861 5861 5861 5861 5862 5864 5866 5867 5868 5868 5868 5869 5869 5870 5871 5870 5870 5872 5874 5877 5879 5881 5881 5882 5882 5882 5883 5885 5887 5889 5892 5894 5895 5895 5896 5897
5850 5851 5853 5851 5850 5852 5852 5853 5854 5853 5852 5853 5851 5850 5850 5850 5850 5850 5851 5853 5854 5855 5855 5854 5854 5855 5856 5858 5859 5859 5858 5859 5861 5863 5864 5865 5865 5865 5866 5867 5867 5869 5869 5869 5870 5872 5874 5876 5878 5879 5879 5879 5879 5880 5882 5883 5885 5887 5890 5891 5892 5893 5895
5846 5847 5849 5849 5849 5850 5848 5849 5850 5850 5851 5851 5849 5848 5847 5847 5847 5848 5849 5851 5851 5852 5852 5852 5852 5852 5853 5855 5856 5856 5856 5856 5857 5859 5861 5862 5863 5862 5863 5864 5865 5867 5868 5868 5869 5870 5872 5873 5874 5875 5876 5877 5877 5878 5879 5880 5881 5883 5886 5888 5889 5890 5892
5843 5844 5845 5845 5846 5847 5846 5846 5847 5847 5848 5849 5847 5846 5845 5843 5844 5846 5846 5847 5848 5848 5849 5848 5848 5849 5850 5851 5853 5853 5853 5852 5853 5855 5857 5859 5860 5860 5860 5861 5863 5864 5866 5866 5867 5868 5870 5870 5870 5872 5873 5875 5876 5877 5877 5878 5879 5880 5882 5884 5885 5886 5888
5841 5842 5842 5842 5843 5844 5843 5843 5843 5843 5844 5845 5845 5844 5841 5840 5842 5844 5843 5844 5845 5845 5845 5845 5846 5846 5847 5848 5849 5850 5850 5849 5849 5851 5852 5854 5856 5858 5858 5858 5858 5860 5862 5863 5864 5866 5868 5869 5868 5869 5870 5871 5873 5874 5875 5876 5877 5878 5879 5881 5882 5882 5883
5839 5840 5840 5841 5841 5840 5840 5840 5840 5841 5841 5842 5841 5840 5838 5838 5840 5841 5841 5842 5842 5842 5842 5843 5843 5844 5844 5845 5846 5846 5846 5846 5845 5846 5848 5850 5851 5854 5855 5855 5854 5855 5858 5860 5862 5864 5866 5867 5867 5867 5867 5868 5869 5871 5873 5875 5875 5875 5876 5877 5878 5878 5879
5835 5835 5836 5837 5838 5838 5838 5837 5838 5838 5839 5838 5837 5836 5836 5837 5837 5838 5839 5839 5839 5839 5840 5840 5841 5841 5842 5842 5842 5843 5842 5842 5842 5842 5844 5845 5846 5848 5850 5851 5851 5852 5854 5856 5858 5860 5862 5863 5864 5864 5865 5865 5866 5867 5870 5872 5873 5874 5874 5875 5875 5876 5876
5832 5832 5831 5832 5834 5835 5835 5835 5836 5837 5837 5836 5834 5833 5834 5835 5835 5836 5837 5836 5836 5836 5837 5838 5839 5839 5839 5839 5839 5839 5839 5839 5838 5838 5839 5841 5842 5844 5845 5846 5847 5849 5851 5852 5853 5856 5858 5860 5860 5861 5861 5862 5862 5863 5865 5868 5870 5872 5873 5873 5873 5873 5874
5829 5830 5829 5830 5831 5833 5834 5834 5834 5834 5834 5834 5833 5831 5831 5831 5833 5835 5835 5835 5834 5834 5834 5835 5835 5836 5836 5836 5836 5836 5836 5836 5835 5835 5836 5837 5839 5840 5841 5842 5844 5846 5847 5848 5849 5851 5854 5856 5857 5858 5858 5858 5859 5860 5862 5864 5866 5868 5869 5870 5870 5870 5871
5826 5827 5828 5829 5830 5831 5831 5831 5831 5832 5832 5832 5831 5830 5828 5829 5831 5833 5834 5834 5833 5832 5832 5832 5832 5833 5833 5833 5833 5834 5834 5833 5833 5832 5833 5834 5836 5837 5837 5838 5840 5842 5843 5845 5846 5848 5850 5852 5854 5855 5855 5856 5857 5858 5860 5861 5862 5863 5865 5866 5867 5867 5868
5824 5825 5825 5826 5827 5827 5827 5826 5827 5829 5829 5829 5829 5828 5827 5827 5829 5830 5830 5831 5831 5831 5830 5830 5830 5830 5830 5830 5831 5831 5831 5831 5830 5830 5830 5831 5832 5834 5835 5836 5837 5838 5839 5841 5843 5844 5847 5849 5850 5851 5852 5853 5855 5856 5857 5858 5859 5860 5862 5863 5863 5864 5865
5820 5821 5821 5822 5824 5824 5823 5822 5823 5825 5825 5826 5827 5827 5826 5825 5826 5827 5828 5828 5829 5829 5828 5828 5828 5828 5828 5828 5828 5828 5828 5828 5827 5827 5827 5827 5829 5831 5833 5834 5834 5835 5836 5837 5839 5841 5843 5844 5846 5848 5849 5850 5852 5853 5854 5856 5857 5858 5859 5860 5860 5860 5861
5817 5818 5819 5819 5820 5821 5821 5821 5820 5821 5823 5824 5824 5824 5824 5823 5824 5825 5825 5826 5826 5827 5826 5825 5826 5826 5826 5826 5826 5826 5826 5825 5825 5824 5824 5824 5825 5827 5830 5831 5831 5832 5833 5834 5836 5838 5840 5841 5842 5845 5846 5848 5849 5850 5851 5852 5854 5855 5856 5856 5856 5856 5856
5814 5815 5816 5817 5816 5817 5819 5820 5818 5817 5821 5822 5822 5821 5822 5821 5822 5823 5823 5823 5823 5824 5824 5824 5824 5824 5823 5823 5823 5823 5824 5823 5823 5822 5822 5822 5823 5824 5826 5827 5828 5829 5830 5831 5833 5835 5837 5838 5840 5842 5844 5845 5846 5847 5848 5850 5851 5852 5853 5853 5853 5853 5852
5811 5812 5813 5815 5814 5814 5816 5817 5815 5816 5818 5819 5819 5820 5819 5819 5820 5821 5821 5821 5820 5821 5821 5822 5821 5821 5821 5821 5821 5821 5821 5821 5820 5820 5820 5820 5820 5821 5823 5824 5825 5826 5827 5829 5830 5830 5831 5833 5836 5839 5841 5842 5843 5844 5845 5847 5848 5849 5850 5850 5850 5850 5850
5809 5809 5810 5812 5811 5811 5812 5813 5812 5814 5816 5816 5816 5817 5817 5818 5818 5818 5818 5818 5818 5818 5818 5819 5819 5819 5819 5819 5818 5818 5818 5818 5818 5817 5817 5818 5818 5819 5820 5821 5822 5823 5824 5826 5827 5826 5827 5829 5832 5835 5837 5838 5839 5841 5843 5844 5845 5846 5847 5848 5848 5848 5848
5806 5806 5807 5808 5807 5807 5808 5809 5810 5812 5813 5813 5813 5814 5815 5817 5817 5816 5815 5815 5816 5816 5816 5816 5816 5816 5816 5816 5816 5816 5816 5816 5816 5816 5815 5815 5816 5817 5818 5819 5820 5820 5822 5823 5824 5822 5822 5825 5828 5831 5833 5835 5836 5838 5840 5841 5843 5844 5845 5846 5846 5846 5846
5803 5803 5803 5804 5804 5803 5804 5806 5808 5809 5810 5809 5810 5811 5812 5815 5816 5815 5813 5813 5813 5813 5814 5814 5814 5814 5814 5813 5814 5814 5814 5814 5814 5814 5813 5813 5813 5814 5815 5816 5817 5818 5819 5821 5822 5822 5822 5823 5825 5828 5830 5832 5833 5835 5837 5839 5840 5841 5842 5843 5843 5844 5844
5800 5801 5801 5801 5801 5801 5802 5804 5806 5807 5808 5807 5807 5808 5810 5812 5814 5813 5812 5811 5811 5811 5811 5811 5811 5811 5811 5811 5811 5812 5812 5811 5811 5811 5811 5811 5811 5811 5812 5813 5815 5816 5817 5818 5820 5822 5823 5824 5825 5826 5828 5829 5831 5832 5834 5835 5836 5838 5839 5840 5841 5841 5842
5798 5799 5800 5799 5799 5799 5800 5802 5804 5804 5805 5805 5805 5805 5807 5809 5810 5810 5810 5810 5809 5809 5809 5809 5809 5809 5808 5808 5809 5809 5809 5809 5809 5809 5809 5808 5809 5809 5810 5811 5812 5813 5814 5816 5817 5818 5820 5822 5823 5824 5826 5827 5829 5830 5831 5832 5833 5834 5835 5837 5838 5839 5840
5796 5798 5798 5797 5797 5797 5797 5799 5802 5803 5802 5803 5803 5804 5804 5806 5807 5807 5807 5807 5807 5807 5807 5807 5806 5806 5806 5806 5806 5806 5806 5807 5806 5806 5806 5806 5807 5807 5808 5809 5810 5810 5811 5813 5814 5815 5817 5818 5820 5822 5823 5825 5826 5827 5828 5829 5830 5832 5833 5834 5835 5836 5837
5794 5795 5795 5796 5796 5795 5794 5797 5800 5800 5800 5800 5801 5802 5802 5803 5804 5805 5804 5804 5804 5804 5804 5804 5804 5804 5803 5803 5803 5803 5804 5804 5804 5804 5804 5804 5804 5805 5805 5806 5807 5808 5809 5810 5811 5813 5814 5815 5817 5819 5820 5822 5823 5824 5825 5826 5827 5829 5830 5831 5832 5833 5833
5791 5792 5793 5794 5794 5793 5792 5795 5797 5797 5797 5798 5799 5799 5799 5800 5801 5802 5802 5802 5802 5802 5802 5802 5802 5802 5801 5801 5801 5801 5801 5802 5802 5802 5802 5802 5802 5803 5803 5804 5805 5806 5807 5808 5809 5811 5812 5813 5814 5816 5817 5818 5819 5820 5822 5823 5824 5825 5826 5827 5828 5829 5830
5788 5790 5791 5791 5791 5791 5791 5792 5794 5794 5795 5795 5796 5797 5797 5797 5797 5798 5799 5800 5799 5799 5800 5799 5799 5799 5799 5799 5799 5799 5799 5799 5799 5799 5800 5800 5800 5801 5801 5801 5802 5803 5804 5805 5806 5808 5809 5810 5811 5813 5814 5815 5816 5817 5818 5820 5820 5821 5823 5823 5824 5825 5826
5785 5787 5788 5788 5789 5789 5789 5790 5791 5792 5793 5793 5793 5794 5794 5794 5793 5794 5796 5797 5797 5797 5797 5797 5797 5797 5797 5797 5797 5797 5797 5797 5798 5798 5798 5798 5798 5799 5799 5799 5800 5800 5801 5802 5803 5804 5806 5807 5808 5809 5810 5811 5812 5813 5815 5816 5817 5818 5819 5820 5821 5822 5823
5783 5784 5785 5786 5787 5787 5787 5787 5789 5790 5790 5790 5790 5791 5791 5791 5790 5790 5792 5794 5794 5794 5795 5795 5795 5795 5795 5795 5795 5796 5796 5796 5796 5796 5796 5796 5796 5797 5797 5797 5798 5798 5798 5799 5800 5801 5802 5803 5804 5805 5806 5808 5809 5810 5811 5813 5814 5815 5816 5817 5818 5818 5819
5780 5781 5782 5783 5784 5784 5784 5785 5786 5787 5787 5787 5787 5788 5789 5788 5788 5788 5789 5791 5792 5793 5793 5793 5794 5794 5793 5793 5793 5794 5794 5794 5794 5794 5794 5794 5795 5795 5795 5796 5796 5796 5797 5797 5798 5798 5799 5800 5801 5802 5803 5804 5805 5807 5808 5809 5811 5812 5812 5813 5814 5815 5816